Location: Ljubljana
(46.0550°N, 14.5140°E)
Time: 19:48:07
(UTC+02:00)

Amateur Radio Satellites - All Passes

Search period start: 21 October 2017 19:18
Search period end: 22 October 2017 19:18
Location: Ljubljana, 46.0550°N, 14.5140°E

Satellite Date Start Highest point End Downlink Frequencies (MHz)
Time Altitude Azimuth
KAITUO 1B 21 Oct 19:19:35 19:22:34 22° 266° (W) 19:25:33 145.475/437.950
XW-2F 21 Oct 19:23:53 19:26:23 17° 268° (W) 19:28:54 145.980 - 146.000
BEESAT 3 21 Oct 19:25:59 19:28:48 18° 37° (NE) 19:31:37 437.485
CUBEBUG 2 21 Oct 19:26:12 19:30:51 67° 74° (ENE) 19:35:36 437.445
CUTE-I 21 Oct 19:30:59 19:35:25 27° 266° (W) 19:39:55 437.470
LilacSat-2 21 Oct 19:32:25 19:34:06 12° 270° (W) 19:35:47 437.200
NUDT-PHONESAT 21 Oct 19:32:30 19:35:00 17° 268° (W) 19:37:30 437.300
AO-85 21 Oct 19:33:38 19:34:40 11° 25° (NNE) 19:35:42 145.980
KKS-1 21 Oct 19:35:09 19:38:31 21° 297° (WNW) 19:41:52 437.445
ZACube-1 21 Oct 19:37:46 19:41:46 30° 67° (ENE) 19:45:46 437.345
XW-2D 21 Oct 19:38:46 19:39:53 11° 271° (W) 19:40:58 145.860 - 145.880
STRAND 1 21 Oct 19:45:41 19:50:02 27° 94° (E) 19:54:21 437.568
HO-68 21 Oct 19:47:33 19:54:34 56° 259° (WSW) 20:01:39 435.675
CUTE 1.7 + AOD 2 21 Oct 19:51:14 19:55:12 39° 262° (W) 19:59:11 437.475
SEEDS 21 Oct 19:55:56 20:00:02 55° 260° (W) 20:04:09 437.485
YUBILEINY 21 Oct 19:57:22 20:05:37 42° 70° (ENE) 20:13:49 435.215
UWE-3 21 Oct 20:01:57 20:06:37 89° 85° (E) 20:11:20 435.000/436.395/437.385
O/OREOS (USA 219) 21 Oct 20:02:18 20:05:33 19° 101° (E) 20:08:50 437.305
STARS 21 Oct 20:04:34 20:08:07 24° 296° (WNW) 20:11:39 437.465
Oscar 11 21 Oct 20:12:29 20:16:32 40° 70° (ENE) 20:20:35 .
AAUSAT CUBESAT 2 21 Oct 20:16:18 20:20:24 74° 257° (WSW) 20:24:31 437.432
Max Valier Satellite 21 Oct 20:40:51 20:42:25 12° 62° (ENE) 20:43:58 145.860
FO-29 21 Oct 20:44:52 20:50:26 25° 91° (E) 20:56:22 435.910
XW-2A 21 Oct 20:47:49 20:50:19 19° 266° (W) 20:52:50 145.665 - 145.685
BEESAT 2 21 Oct 20:48:55 20:52:35 31° 44° (NE) 20:56:12 435.950
AO-73 21 Oct 20:50:30 20:55:01 60° 260° (W) 20:59:32 145.935
BEESAT 3 21 Oct 21:02:49 21:06:48 69° 236° (SW) 21:10:40 437.485
CUBEBUG 2 21 Oct 21:05:12 21:07:56 15° 272° (W) 21:10:41 437.445
AO-85 21 Oct 21:12:00 21:16:12 40° 46° (NE) 21:20:43 145.980
ZACube-1 21 Oct 21:13:52 21:17:58 32° 265° (W) 21:22:05 437.345
STRAND 1 21 Oct 21:24:29 21:29:22 44° 292° (WNW) 21:34:13 437.568
DELFI C3 21 Oct 21:33:17 21:37:09 64° 73° (ENE) 21:41:01 145.870
O/OREOS (USA 219) 21 Oct 21:40:08 21:44:35 50° 299° (WNW) 21:49:04 437.305
UWE-3 21 Oct 21:42:31 21:43:43 11° 274° (W) 21:44:55 435.000/436.395/437.385
Oscar 11 21 Oct 21:49:28 21:52:48 21° 267° (W) 21:56:09 .
YUBILEINY 21 Oct 21:54:14 22:02:34 50° 272° (W) 22:10:56 435.215
EO-88 21 Oct 21:59:26 22:03:03 68° 75° (ENE) 22:06:42 145.990 - 145.960
Max Valier Satellite 21 Oct 22:12:04 22:15:46 60° 260° (W) 22:19:28 145.860
ESTCUBE 1 21 Oct 22:26:09 22:29:15 19° 62° (ENE) 22:32:20 437.505/2401.250
BEESAT 2 21 Oct 22:26:41 22:30:17 31° 243° (WSW) 22:33:50 435.950
FO-29 21 Oct 22:29:04 22:35:54 74° 288° (WNW) 22:43:28 435.910
UNISAT 6 21 Oct 22:36:23 22:40:51 46° 98° (E) 22:45:11 437.425
LO-87 21 Oct 22:45:19 22:48:31 31° 70° (ENE) 22:51:45 145.935 - 145.965
TIGRISAT 21 Oct 22:50:46 22:55:21 59° 100° (E) 22:59:47 435.000
AO-85 21 Oct 22:52:30 22:56:34 32° 243° (WSW) 23:00:53 145.980
DELFI C3 21 Oct 23:11:07 23:12:19 11° 272° (W) 23:13:30 145.870
PRISM 21 Oct 23:18:10 23:22:13 52° 101° (E) 23:26:15 437.425
AIST 2D 21 Oct 23:43:52 23:46:47 25° 95° (E) 23:49:42 435.315
QB50P2 21 Oct 23:44:30 23:46:11 12° 88° (E) 23:47:52 145.880/145.840
VELOX 1 21 Oct 23:46:05 23:49:26 22° 64° (ENE) 23:52:47 145.980
DUCHIFAT 1 21 Oct 23:56:39 23:57:59 11° 88° (E) 23:59:18 145.980
RS-15 21 Oct 23:59:34 00:10:25 39° 107° (ESE) 00:21:14 29.354- 29.394
ESTCUBE 1 22 Oct 00:01:16 00:05:40 54° 260° (W) 00:10:04 437.505/2401.250
UNISAT 6 22 Oct 00:13:43 00:17:15 22° 297° (WNW) 00:20:43 437.425
FO-29 22 Oct 00:15:52 00:20:02 17° 306° (NW) 00:24:25 435.910
LO-87 22 Oct 00:19:20 00:21:59 19° 267° (W) 00:24:39 145.935 - 145.965
SPROUT 22 Oct 00:25:49 00:30:05 73° 74° (ENE) 00:34:23 437.525
TIGRISAT 22 Oct 00:28:29 00:31:33 18° 299° (WNW) 00:34:36 435.000
50 SAT 22 Oct 00:42:08 00:44:26 18° 66° (ENE) 00:46:46 437.505
DX 1 22 Oct 00:47:49 00:51:18 24° 65° (ENE) 00:54:49 434.975-435.025
EO-79 22 Oct 00:52:39 00:56:52 57° 100° (E) 01:01:03 145.935-145.965
PRISM 22 Oct 00:54:27 00:57:06 17° 298° (WNW) 00:59:45 437.425
POLYITAN 1 22 Oct 00:57:46 01:02:02 64° 102° (ESE) 01:06:14 437.675
UKube-1 22 Oct 01:08:51 01:12:24 26° 65° (ENE) 01:15:57 .
AIST 2D 22 Oct 01:17:09 01:19:52 22° 292° (WNW) 01:22:35 435.315
QB50P2 22 Oct 01:18:12 01:22:28 70° 286° (WNW) 01:26:40 145.880/145.840
NANOSAT C BR1 22 Oct 01:19:57 01:24:13 83° 284° (WNW) 01:28:26 145.865
VELOX 1 22 Oct 01:21:27 01:25:37 42° 262° (W) 01:29:49 145.980
DUCHIFAT 1 22 Oct 01:29:54 01:34:09 74° 285° (WNW) 01:38:20 145.980
Oscar 19 22 Oct 01:30:21 01:33:45 18° 90° (E) 01:37:07 437.125/150
BUGSAT 1 22 Oct 01:32:17 01:36:05 31° 96° (E) 01:39:49 437.445
SPROUT 22 Oct 02:04:54 02:06:28 12° 272° (W) 02:08:03 437.525
MOZHAYETS 4 22 Oct 02:06:54 02:09:55 17° 61° (ENE) 02:12:57
RS-15 22 Oct 02:09:45 02:22:06 74° 310° (NW) 02:34:25 29.354- 29.394
Gurwin Techsat 1B 22 Oct 02:12:11 02:16:51 30° 95° (E) 02:21:28 435.225
NO-84 22 Oct 02:13:13 02:15:46 15° 126° (SE) 02:18:18 435.350 FM
50 SAT 22 Oct 02:13:46 02:16:35 27° 263° (W) 02:19:25 437.505
M-CUBED/EXP-1 PRIME 22 Oct 02:17:15 02:20:08 22° 102° (ESE) 02:23:09 437.505
DX 1 22 Oct 02:23:19 02:27:19 36° 262° (W) 02:31:20 434.975-435.025
EO-79 22 Oct 02:29:32 02:32:11 16° 298° (WNW) 02:34:51 145.935-145.965
POLYITAN 1 22 Oct 02:34:55 02:37:18 15° 299° (WNW) 02:39:41 437.675
UKube-1 22 Oct 02:44:23 02:48:16 34° 263° (W) 02:52:13 .
ITUPSAT 1 22 Oct 02:48:15 02:52:41 38° 67° (ENE) 02:57:08 437.325
NANOSAT C BR1 22 Oct 02:58:58 02:59:10 10° 303° (WNW) 02:59:22 145.865
BEESAT 22 Oct 03:02:30 03:07:08 52° 70° (ENE) 03:11:48 436.000
BUGSAT 1 22 Oct 03:07:46 03:11:19 26° 294° (WNW) 03:14:49 437.445
Oscar 19 22 Oct 03:08:26 03:13:32 65° 288° (WNW) 03:18:35 437.125/150
AO-7 22 Oct 03:20:21 03:26:38 23° 91° (E) 03:32:53 .
MOZHAYETS 4 22 Oct 03:42:02 03:46:37 62° 259° (W) 03:51:13
ITAMSAT 1 22 Oct 03:45:01 03:48:54 20° 92° (E) 03:52:43 435.822/435.867
NO-84 22 Oct 03:48:21 03:52:39 83° 144° (SE) 03:56:54 435.350 FM
M-CUBED/EXP-1 PRIME 22 Oct 03:51:28 03:54:34 29° 296° (WNW) 03:57:51 437.505
Gurwin Techsat 1B 22 Oct 03:51:56 03:56:54 41° 293° (WNW) 04:01:50 435.225
CUBESAT XI-V 22 Oct 03:57:22 04:01:46 45° 70° (ENE) 04:06:10 437.345
RS-15 22 Oct 04:25:59 04:37:03 36° 340° (NNW) 04:47:55 29.354- 29.394
ITUPSAT 1 22 Oct 04:26:29 04:30:34 27° 265° (W) 04:34:41 437.325
O/OREOS (USA 219) 22 Oct 04:32:08 04:32:24 10° 41° (NE) 04:32:39 437.305
BEESAT 22 Oct 04:41:44 04:45:12 20° 268° (W) 04:48:42 436.000
Oscar 19 22 Oct 04:50:52 04:51:52 11° 307° (NW) 04:52:52 437.125/150
KKS-1 22 Oct 04:58:00 05:02:21 58° 72° (ENE) 05:06:45 437.445
AO-7 22 Oct 05:12:00 05:20:20 84° 290° (WNW) 05:28:39 .
ITAMSAT 1 22 Oct 05:23:34 05:28:43 58° 290° (WNW) 05:33:51 435.822/435.867
STARS 22 Oct 05:26:24 05:30:37 48° 70° (ENE) 05:34:52 437.465
NO-84 22 Oct 05:26:37 05:30:27 31° 342° (NNW) 05:34:10 435.350 FM
DOVE 4 22 Oct 05:31:33 05:36:00 31° 95° (E) 05:40:35 437.250
CUBESAT XI-V 22 Oct 05:35:51 05:39:20 21° 268° (W) 05:42:51 437.345
CUTE-I 22 Oct 06:05:54 06:08:48 15° 88° (E) 06:11:42 437.470
SO-50 22 Oct 06:08:08 06:11:23 20° 112° (ESE) 06:14:40 436.795
O/OREOS (USA 219) 22 Oct 06:08:18 06:12:52 57° 62° (ENE) 06:17:22 437.305
XW-2C 22 Oct 06:09:36 06:11:35 14° 91° (E) 06:13:33 145.795 - 145.815
KKS-1 22 Oct 06:36:37 06:39:17 16° 269° (W) 06:41:58 437.445
RS-15 22 Oct 06:43:13 06:54:00 34° 15° (NNE) 07:04:21 29.354- 29.394
KAITUO 1B 22 Oct 06:47:23 06:50:34 27° 96° (E) 06:53:44 145.475/437.950
XW-2F 22 Oct 06:51:49 06:55:20 38° 98° (E) 06:58:49 145.980 - 146.000
NUDT-PHONESAT 22 Oct 06:58:40 07:02:03 34° 97° (E) 07:05:24 437.300
LilacSat-2 22 Oct 07:00:25 07:04:09 57° 100° (E) 07:07:51 437.200
STRAND 1 22 Oct 07:03:43 07:08:38 48° 69° (ENE) 07:13:36 437.568
STARS 22 Oct 07:04:07 07:07:12 19° 268° (W) 07:10:19 437.465
FO-29 22 Oct 07:04:30 07:06:06 11° 49° (NE) 07:07:44 435.910
XW-2D 22 Oct 07:05:24 07:09:09 64° 101° (E) 07:12:51 145.860 - 145.880
NO-84 22 Oct 07:05:25 07:08:47 23° 3° (N) 07:12:00 435.350 FM
AO-7 22 Oct 07:05:53 07:12:00 24° 312° (NW) 07:18:08 .
DOVE 4 22 Oct 07:09:07 07:13:40 37° 291° (WNW) 07:18:25 437.250
HO-68 22 Oct 07:12:49 07:18:43 26° 92° (E) 07:24:34 435.675
CUBEBUG 2 22 Oct 07:16:33 07:18:30 12° 87° (E) 07:20:26 437.445
XW-2B 22 Oct 07:18:55 07:22:41 89° 83° (E) 07:26:25 145.730 - 145.750
PCSat 22 Oct 07:23:27 07:27:10 19° 106° (ESE) 07:30:54 145.827
CUTE 1.7 + AOD 2 22 Oct 07:33:24 07:37:02 28° 95° (E) 07:40:41 437.475
SEEDS 22 Oct 07:37:38 07:40:42 20° 92° (E) 07:43:46 437.485
XW-2C 22 Oct 07:42:25 07:46:01 46° 288° (WNW) 07:49:36 145.795 - 145.815
CUTE-I 22 Oct 07:44:06 07:49:30 83° 287° (WNW) 07:54:53 437.470
SO-50 22 Oct 07:47:04 07:51:28 55° 311° (NW) 07:55:55 436.795
O/OREOS (USA 219) 22 Oct 07:48:50 07:51:47 17° 260° (W) 07:54:44 437.305
UWE-3 22 Oct 07:50:26 07:53:10 16° 89° (E) 07:55:51 435.000/436.395/437.385
AAUSAT CUBESAT 2 22 Oct 07:56:59 07:59:15 14° 90° (E) 08:01:31 437.432
XW-2A 22 Oct 08:06:20 08:08:51 19° 94° (E) 08:11:20 145.665 - 145.685
KAITUO 1B 22 Oct 08:21:29 08:24:27 23° 293° (WNW) 08:27:24 145.475/437.950
XW-2F 22 Oct 08:26:40 08:29:10 17° 295° (WNW) 08:31:38 145.980 - 146.000
NUDT-PHONESAT 22 Oct 08:33:07 08:35:40 18° 295° (WNW) 08:38:13 437.300
LilacSat-2 22 Oct 08:36:14 08:37:58 13° 298° (WNW) 08:39:41 437.200
AO-73 22 Oct 08:36:36 08:39:59 22° 92° (E) 08:43:18 145.935
XW-2D 22 Oct 08:41:27 08:42:48 12° 299° (WNW) 08:44:10 145.860 - 145.880
NO-84 22 Oct 08:43:10 08:47:00 40° 24° (NNE) 08:50:33 435.350 FM
STRAND 1 22 Oct 08:43:58 08:48:04 24° 267° (W) 08:52:12 437.568
FO-29 22 Oct 08:44:42 08:49:55 65° 71° (ENE) 08:55:38 435.910
CUBEBUG 2 22 Oct 08:51:03 08:55:44 76° 284° (WNW) 09:00:13 437.445
RS-15 22 Oct 08:57:15 09:09:18 66° 46° (NE) 09:20:39 29.354- 29.394
ZACube-1 22 Oct 08:59:13 09:03:24 42° 98° (E) 09:07:26 437.345
HO-68 22 Oct 08:59:50 09:06:59 67° 292° (WNW) 09:14:06 435.675
YUBILEINY 22 Oct 09:01:44 09:09:42 42° 86° (E) 09:17:42 435.215
PCSat 22 Oct 09:04:35 09:09:59 71° 305° (NW) 09:15:26 145.827
ISS 22 Oct 09:06:31 09:07:52 12° 133° (SE) 09:09:13 437.550
CUTE 1.7 + AOD 2 22 Oct 09:09:13 09:12:50 29° 292° (WNW) 09:16:27 437.475
SEEDS 22 Oct 09:12:38 09:16:33 40° 289° (WNW) 09:20:27 437.485
UWE-3 22 Oct 09:25:35 09:30:02 57° 287° (WNW) 09:34:19 435.000/436.395/437.385
CUTE-I 22 Oct 09:25:59 09:28:44 14° 305° (NW) 09:31:29 437.470
SO-50 22 Oct 09:30:34 09:32:55 14° 333° (NNW) 09:35:16 436.795
AAUSAT CUBESAT 2 22 Oct 09:31:00 09:35:02 55° 287° (WNW) 09:39:04 437.432
Oscar 11 22 Oct 09:32:44 09:37:00 58° 101° (E) 09:41:13 .
UNISAT 6 22 Oct 09:36:56 09:41:28 54° 72° (ENE) 09:46:04 437.425
XW-2A 22 Oct 09:38:45 09:41:33 25° 291° (WNW) 09:44:20 145.665 - 145.685
Max Valier Satellite 22 Oct 09:42:03 09:42:26 10° 88° (E) 09:42:50 145.860
TIGRISAT 22 Oct 09:51:07 09:55:44 68° 73° (ENE) 10:00:26 435.000
nSIGHT-1 22 Oct 10:03:21 10:06:23 41° 144° (SE) 10:09:25 .
PRISM 22 Oct 10:09:26 10:13:21 50° 71° (ENE) 10:17:18 437.425
AO-73 22 Oct 10:12:19 10:16:21 38° 291° (WNW) 10:20:18 145.935
NO-84 22 Oct 10:20:45 10:24:25 41° 225° (SW) 10:27:47 435.350 FM
AIST 2D 22 Oct 10:21:12 10:23:13 15° 65° (ENE) 10:25:15 435.315
CUBEBUG 2 22 Oct 10:30:29 10:31:27 11° 304° (NW) 10:32:25 437.445
FO-29 22 Oct 10:32:09 10:35:44 18° 273° (W) 10:39:29 435.910
ZACube-1 22 Oct 10:36:05 10:39:24 21° 296° (WNW) 10:42:39 437.345
QB50P2 22 Oct 10:39:23 10:41:36 14° 60° (ENE) 10:43:51 145.880/145.840
ISS 22 Oct 10:40:36 10:43:50 76° 150° (SSE) 10:47:05 437.550
NANOSAT C BR1 22 Oct 10:41:22 10:42:59 12° 59° (ENE) 10:44:35 145.865
DELFI C3 22 Oct 10:41:56 10:45:55 76° 102° (ESE) 10:49:53 145.870
HO-68 22 Oct 10:49:19 10:53:26 16° 312° (NW) 10:57:34 435.675
DUCHIFAT 1 22 Oct 10:50:37 10:52:36 13° 60° (ENE) 10:54:35 145.980
PCSat 22 Oct 10:50:46 10:54:22 18° 326° (NNW) 10:57:59 145.827
YUBILEINY 22 Oct 10:58:05 11:06:23 48° 288° (WNW) 11:14:48 435.215
EO-88 22 Oct 10:58:55 11:02:31 62° 101° (E) 11:06:06 145.990 - 145.960
Oscar 11 22 Oct 11:10:02 11:12:41 16° 298° (WNW) 11:15:20 .
RS-15 22 Oct 11:10:25 11:21:15 44° 251° (WSW) 11:31:34 29.354- 29.394
Max Valier Satellite 22 Oct 11:13:02 11:16:41 62° 285° (WNW) 11:20:17 145.860
UNISAT 6 22 Oct 11:15:14 11:18:29 19° 269° (W) 11:21:47 437.425
TIGRISAT 22 Oct 11:30:16 11:32:54 15° 271° (W) 11:35:32 435.000
nSIGHT-1 22 Oct 11:39:36 11:42:40 42° 343° (NNW) 11:45:45 .
LO-87 22 Oct 11:42:41 11:45:49 27° 95° (E) 11:48:55 145.935 - 145.965
PRISM 22 Oct 11:46:32 11:48:55 15° 269° (W) 11:51:19 437.425
EO-79 22 Oct 11:46:55 11:51:06 57° 73° (ENE) 11:55:19 145.935-145.965
ESTCUBE 1 22 Oct 11:51:20 11:55:06 26° 94° (E) 11:58:50 437.505/2401.250
POLYITAN 1 22 Oct 11:52:08 11:56:23 65° 73° (ENE) 12:00:39 437.675
AIST 2D 22 Oct 11:52:45 11:56:04 40° 262° (W) 11:59:24 435.315
Gurwin Techsat 1B 22 Oct 12:01:05 12:01:52 10° 52° (NE) 12:02:39 435.225
SPROUT 22 Oct 12:11:47 12:12:21 10° 87° (E) 12:12:55 437.525
QB50P2 22 Oct 12:12:36 12:16:51 70° 258° (WSW) 12:21:09 145.880/145.840
NANOSAT C BR1 22 Oct 12:13:47 12:18:02 83° 254° (WSW) 12:22:20 145.865
ISS 22 Oct 12:17:31 12:20:32 33° 349° (N) 12:23:33 437.550
DELFI C3 22 Oct 12:18:48 12:20:05 11° 300° (WNW) 12:21:22 145.870
BEESAT 2 22 Oct 12:19:57 12:23:05 22° 114° (ESE) 12:26:15 435.950
DUCHIFAT 1 22 Oct 12:23:26 12:27:41 75° 258° (WSW) 12:31:57 145.980
BUGSAT 1 22 Oct 12:24:01 12:27:43 31° 68° (ENE) 12:31:28 437.445
BEESAT 3 22 Oct 12:31:04 12:35:05 89° 119° (ESE) 12:39:08 437.485
EO-88 22 Oct 12:34:29 12:35:40 11° 298° (WNW) 12:36:50 145.990 - 145.960
AO-7 22 Oct 12:35:53 12:38:47 12° 35° (NE) 12:41:42 .
Oscar 19 22 Oct 12:49:08 12:53:45 34° 66° (ENE) 12:58:21 437.125/150
SO-50 22 Oct 12:56:31 12:58:11 12° 23° (NNE) 12:59:51 436.795
YUBILEINY 22 Oct 13:04:03 13:05:59 11° 314° (NW) 13:07:54 435.215
M-CUBED/EXP-1 PRIME 22 Oct 13:05:26 13:08:34 40° 66° (ENE) 13:11:40 437.505
VELOX 1 22 Oct 13:08:43 13:12:36 29° 96° (E) 13:16:27 145.980
AO-85 22 Oct 13:09:12 13:12:52 43° 119° (ESE) 13:16:40 145.980
LO-87 22 Oct 13:16:12 13:19:07 23° 293° (WNW) 13:22:00 145.935 - 145.965
nSIGHT-1 22 Oct 13:16:35 13:19:26 29° 3° (N) 13:22:17 .
EO-79 22 Oct 13:24:47 13:27:14 15° 270° (W) 13:29:40 145.935-145.965
ESTCUBE 1 22 Oct 13:27:52 13:31:57 35° 292° (WNW) 13:36:02 437.505/2401.250
POLYITAN 1 22 Oct 13:30:33 13:32:35 13° 271° (W) 13:34:39 437.675
50 SAT 22 Oct 13:31:16 13:32:21 11° 91° (E) 13:33:26 437.505
Gurwin Techsat 1B 22 Oct 13:35:32 13:40:45 60° 71° (ENE) 13:46:00 435.225
SPROUT 22 Oct 13:44:30 13:48:50 83° 283° (WNW) 13:53:06 437.525
ISS 22 Oct 13:54:33 13:57:32 32° 9° (N) 14:00:32 437.550
BEESAT 2 22 Oct 13:56:44 14:00:35 43° 313° (NW) 14:04:29 435.950
BUGSAT 1 22 Oct 13:59:30 14:03:03 26° 265° (W) 14:06:41 437.445
DX 1 22 Oct 14:08:37 14:12:30 30° 96° (E) 14:16:22 434.975-435.025
BEESAT 3 22 Oct 14:10:39 14:13:12 16° 325° (NW) 14:15:45 437.485
AO-7 22 Oct 14:21:46 14:29:23 43° 58° (ENE) 14:37:00 .
PCSat 22 Oct 14:25:50 14:26:32 10° 20° (NNE) 14:27:15 145.827
Oscar 19 22 Oct 14:28:20 14:33:01 34° 263° (W) 14:37:44 437.125/150
UKube-1 22 Oct 14:28:25 14:32:17 31° 97° (E) 14:36:07 .
SO-50 22 Oct 14:35:31 14:39:52 41° 45° (NE) 14:44:16 436.795
M-CUBED/EXP-1 PRIME 22 Oct 14:41:47 14:43:14 12° 262° (W) 14:44:41 437.505
VELOX 1 22 Oct 14:45:05 14:49:01 32° 293° (WNW) 14:52:57 145.980
AO-85 22 Oct 14:50:11 14:53:26 24° 320° (NW) 14:56:47 145.980
nSIGHT-1 22 Oct 14:52:57 14:56:08 58° 23° (NNE) 14:59:17 .
50 SAT 22 Oct 15:01:44 15:04:55 44° 287° (WNW) 15:08:04 437.505
BEESAT 22 Oct 15:02:54 15:03:44 10° 87° (E) 15:04:33 436.000
ITAMSAT 1 22 Oct 15:05:02 15:09:52 40° 67° (ENE) 15:14:44 435.822/435.867
Gurwin Techsat 1B 22 Oct 15:17:16 15:21:06 20° 269° (W) 15:24:58 435.225
SPROUT 22 Oct 15:23:24 15:23:58 10° 303° (WNW) 15:24:32 437.525
ISS 22 Oct 15:31:00 15:34:17 86° 205° (SSW) 15:37:33 437.550
MOZHAYETS 4 22 Oct 15:34:50 15:38:38 25° 94° (E) 15:42:24
BEESAT 2 22 Oct 15:38:45 15:39:21 10° 334° (NNW) 15:39:58 435.950
DX 1 22 Oct 15:44:50 15:48:37 29° 294° (WNW) 15:52:25 434.975-435.025
UKube-1 22 Oct 16:04:31 16:08:13 28° 294° (WNW) 16:11:54 .
PCSat 22 Oct 16:06:58 16:11:47 31° 44° (NE) 16:16:34 145.827
AO-7 22 Oct 16:13:59 16:22:00 52° 258° (WSW) 16:30:04 .
SO-50 22 Oct 16:16:11 16:20:13 30° 244° (WSW) 16:24:17 436.795
ITUPSAT 1 22 Oct 16:23:20 16:28:07 63° 102° (ESE) 16:32:51 437.325
nSIGHT-1 22 Oct 16:29:31 16:32:13 25° 221° (SW) 16:34:54 .
BEESAT 22 Oct 16:37:24 16:42:13 86° 106° (ESE) 16:46:59 436.000
DOVE 4 22 Oct 16:39:48 16:43:39 34° 68° (ENE) 16:47:40 437.250
ITAMSAT 1 22 Oct 16:44:56 16:49:26 29° 265° (W) 16:53:57 435.822/435.867
XW-2C 22 Oct 16:54:25 16:55:30 11° 61° (ENE) 16:56:34 145.795 - 145.815
ISS 22 Oct 17:08:29 17:10:19 14° 226° (SW) 17:12:09 437.550
MOZHAYETS 4 22 Oct 17:11:40 17:15:53 37° 291° (WNW) 17:20:03
CUBESAT XI-V 22 Oct 17:28:08 17:32:45 80° 105° (ESE) 17:37:21 437.345
CUTE-I 22 Oct 17:29:27 17:34:04 31° 64° (ENE) 17:38:43 437.470
KAITUO 1B 22 Oct 17:29:56 17:32:38 19° 66° (ENE) 17:35:20 145.475/437.950
XW-2F 22 Oct 17:34:54 17:38:07 27° 68° (ENE) 17:41:20 145.980 - 146.000
NUDT-PHONESAT 22 Oct 17:40:07 17:43:07 24° 68° (ENE) 17:46:07 437.300
LilacSat-2 22 Oct 17:44:21 17:47:56 40° 71° (ENE) 17:51:31 437.200
HO-68 22 Oct 17:44:38 17:50:27 28° 56° (NE) 17:56:16 435.675
XW-2D 22 Oct 17:48:37 17:52:13 42° 72° (ENE) 17:55:49 145.860 - 145.880
PCSat 22 Oct 17:50:10 17:55:25 51° 245° (WSW) 18:00:39 145.827
XW-2B 22 Oct 18:02:00 18:05:44 59° 74° (ENE) 18:09:28 145.730 - 145.750
ITUPSAT 1 22 Oct 18:02:13 18:05:28 18° 300° (WNW) 18:08:42 437.325
CUBEBUG 2 22 Oct 18:16:27 18:19:19 16° 60° (ENE) 18:22:12 437.445
BEESAT 22 Oct 18:16:55 18:19:18 14° 303° (WNW) 18:21:40 436.000
DOVE 4 22 Oct 18:18:00 18:21:26 24° 267° (W) 18:25:02 437.250
KKS-1 22 Oct 18:22:33 18:27:04 82° 102° (ESE) 18:31:33 437.445
XW-2C 22 Oct 18:25:21 18:29:07 71° 258° (WSW) 18:32:55 145.795 - 145.815
CUTE 1.7 + AOD 2 22 Oct 18:28:18 18:31:54 28° 67° (ENE) 18:35:30 437.475
SEEDS 22 Oct 18:31:47 18:34:47 20° 64° (ENE) 18:37:47 437.485
XW-2A 22 Oct 18:41:06 18:42:16 11° 63° (ENE) 18:43:26 145.665 - 145.685
STARS 22 Oct 18:49:02 18:53:28 65° 102° (ESE) 18:57:52 437.465
UWE-3 22 Oct 18:49:20 18:52:38 19° 63° (ENE) 18:55:57 435.000/436.395/437.385
AAUSAT CUBESAT 2 22 Oct 18:49:51 18:52:00 14° 62° (ENE) 18:54:09 437.432
KAITUO 1B 22 Oct 19:03:00 19:06:25 34° 263° (W) 19:09:49 145.475/437.950
CUBESAT XI-V 22 Oct 19:07:11 19:09:30 14° 301° (WNW) 19:11:48 437.345
BEESAT 3 22 Oct 19:08:40 19:11:29 18° 37° (NE) 19:14:16 437.485
XW-2F 22 Oct 19:09:08 19:12:13 24° 266° (W) 19:15:18 145.980 - 146.000
